Flag for Jordan Weather past 2 weeks in Zarqa, Jordan

Now
70 °F

Haze.


Feels Like: 70 °F
Forecast: 65 / 92 °F
Wind: No wind

Location: Amman Airport


UV Index: 7 (High)

Visibility: 4 mi


Pressure: 30.04 "Hg

Humidity: 35%

Dew point: 41 °F

Location of ZarqaLocation

Historic Weather in Zarqa

°F

Zarqa temperature yesterday

Maximum temperature yesterday: 73 °F (at 3:00 PM)
Minimum temperature yesterday: 57 °F (at 2:00 AM)
Average temperature yesterday: 64 °F

Past Weeks' High & Low Weather Summary

 TemperatureHumidityPressure
High90 °F (Apr 19, 4:00 PM)88% (Apr 10, 5:00 AM)30.12 "Hg (Apr 10, 5:00 AM)
Low48 °F (Apr 11, 5:00 AM)9% (Apr 19, 5:00 PM)29.83 "Hg (Apr 17, 6:00 AM)
Average66 °F39%30.00 "Hg
* Reported Apr 8 10:00 PM — Apr 23 10:00 PM, Zarqa, Weather by CustomWeather, © 2014

Note: Actual official high and low records may vary slightly from our data, if they occured in-between our weather recording intervals... More about our weather records

Advertising

Historic Weather Conditions — Data for Previous 24 hours

 ConditionsComfort  
Time TempWeatherWind HumidityBarometerVisibility
10:00 PM
Apr 23
72 °FHaze.No wind31%30.04 "Hg4 mi
9:00 PM73 °FHaze.No wind23%30.04 "Hg4 mi
8:00 PM77 °FHaze.2 mph21%30.01 "Hg3 mi
7:00 PM79 °FHaze.7 mph23%30.01 "Hg3 mi
6:00 PM84 °FHaze.No wind12%30.01 "Hg3 mi
5:00 PM84 °FFog.N/A12%30.01 "HgN/A
4:00 PM84 °FHaze.5 mph12%30.04 "Hg3 mi
3:00 PM82 °FHaze.No wind16%30.07 "Hg3 mi
2:00 PM81 °FHaze.7 mph14%30.09 "Hg3 mi
1:00 PM79 °FHaze.No wind17%30.12 "Hg3 mi
11:00 AM75 °FHaze.7 mph21%30.12 "Hg3 mi
10:00 AM73 °FHaze.7 mph25%30.12 "Hg3 mi
9:00 AM70 °FSunny.5 mph33%30.12 "Hg10 mi
8:00 AM66 °FSunny.No wind32%30.07 "Hg10 mi
7:00 AM59 °FSunny.No wind42%30.09 "Hg10 mi
6:00 AM59 °FClear.No wind39%30.09 "Hg10 mi
5:00 AM59 °FClear.No wind39%30.09 "Hg10 mi
4:00 AM59 °FClear.No wind39%30.09 "Hg10 mi
3:00 AM61 °FClear.No wind31%30.09 "Hg10 mi
2:00 AM63 °FClear.No wind30%30.12 "Hg10 mi
1:00 AM64 °FClear.No wind34%30.12 "Hg10 mi
12:00 AM63 °FClear.No wind37%30.12 "Hg10 mi
11:00 PM
Apr 22
64 °FClear.No wind34%30.12 "Hg10 mi
Weather by CustomWeather, © 2014

See weather overview